Location: Sungai Apap
(2.6167°N, 113.3833°E)
Time: 15:08:21
(UTC+00:00)

CENTAUR R/B - Pass Details

Date: 25 May 2024
Orbit: 668 x 1517 km, 63.4° (Epoch: 12 June)

Event Time Altitude Azimuth Distance (km) Brightness Sun altitude
Exits shadow 20:17:26 62° 22° (NNE) 793 2.1 -28.1°
Drops below altitude 10° 20:21:42 10° 23° (NNE) 2,292 5.0 -27.1°
Sets 20:24:16 0° 23° (NNE) 3,318 6.0 -26.5°
